User: anonymous   Login
Location: Chaumontel
(49.1247°N, 2.4324°E)
Time: 23:47:02
(UTC+00:00)
Language:

DELTA 2 DEB (DPAF) - Orbit

View from above orbital plane
View from above orbital plane
View from above satellite
View from above satellite

Ground track
Ground track

The orbit data is extracted from the following two-line orbital elements,

1 29110U 06016D   23150.54899774  .00005725  00000-0  72853-3 0  9997
2 29110  98.4334 335.0173 0004207  58.3286  33.4258 14.81997604916799
Epoch (UTC): 30 May 2023 13:10:33
Eccentricity: 0.0004207
inclination: 98.4334°
perigee height: 620 km
apogee height: 626 km
right ascension of ascending node: 335.0173°
argument of perigee: 58.3286°
revolutions per day: 14.81997604
mean anomaly at epoch: 33.4258°
orbit number at epoch: 91679

The dashed part of the orbit path shows where the satellite is in the earth's shadow,  

DLR